Theta_e
320 315 314 311 308 308 306 301 295 291 293 288 283 289 293 295 296 297 298 299 298 301 300 306 301 303 303 302 305 302 306 305 303 296 293 302 321 335 333 334 337 339 340 341 341 338 336 342 345 345 346 346 346 346 346 344 343 342 341 341 341 340 339 342 341 340 341 341 340 339 340 340 340 340 340 340 340 340 340 339 339 340 340 341 342 343 344 343 344 344 344 345 345 345 344 344 344
314 314 310 311 312 304 301 296 290 285 285 284 287 287 289 292 297 296 297 296 297 303 305 311 312 312 311 310 309 308 304 313 304 313 321 327 335 332 334 336 337 337 339 340 338 335 334 337 345 345 346 346 346 346 347 344 344 342 341 341 341 341 337 339 342 343 342 342 340 340 339 339 339 340 340 340 340 341 340 340 340 340 340 342 343 343 343 343 343 343 344 345 345 344 344 343 343
313 314 310 310 308 301 298 296 294 282 285 284 282 287 290 294 295 296 297 296 300 308 309 309 307 306 306 305 302 302 301 321 319 320 327 334 329 331 336 336 337 337 339 340 337 334 333 338 343 345 345 347 347 346 346 344 344 344 343 343 342 341 341 343 343 343 343 344 341 340 340 339 339 339 340 339 339 341 341 341 340 340 341 341 342 342 341 342 343 343 343 344 344 343 343 342 342
312 313 309 304 305 299 293 290 286 285 290 283 282 286 289 294 295 296 296 296 306 305 303 304 308 308 305 304 305 310 311 315 322 327 325 329 330 335 337 337 337 339 340 339 335 334 334 339 342 346 346 346 346 346 346 345 345 344 344 342 339 338 339 339 340 342 342 343 344 342 341 342 343 343 342 342 341 341 341 340 339 340 341 341 340 342 342 343 343 343 343 343 343 343 342 342 342
312 315 308 302 300 299 291 289 286 284 287 284 289 287 289 291 297 295 300 298 303 299 299 303 306 310 309 309 308 304 305 316 324 328 330 331 336 337 337 338 339 340 340 339 336 333 333 340 343 345 345 347 346 346 346 346 345 344 343 342 341 340 340 339 338 341 343 343 343 344 344 344 343 343 344 343 342 342 342 341 341 341 340 341 342 343 342 343 342 343 342 343 343 342 342 342 341
309 309 310 306 302 301 295 291 290 288 288 287 288 290 289 292 296 295 300 300 302 298 299 302 304 305 309 312 312 306 313 315 322 324 332 331 336 339 339 339 339 339 339 337 334 331 331 340 341 344 345 346 346 346 346 346 345 344 343 342 341 340 340 339 339 339 340 341 342 344 344 343 344 343 343 343 343 343 342 341 341 340 341 341 342 342 343 343 343 343 343 342 342 341 341 341 341
310 302 301 302 299 298 291 287 284 285 290 289 291 289 292 292 297 298 299 300 301 302 299 307 307 307 305 307 313 315 317 319 322 322 330 334 338 339 339 339 338 338 338 337 334 334 334 340 343 345 346 345 345 346 346 346 346 344 343 342 341 341 340 339 338 339 341 341 341 342 343 344 343 342 341 341 341 341 341 341 342 341 342 342 341 341 342 342 342 342 342 342 341 341 341 341 341
311 306 302 295 292 294 288 287 287 285 291 290 290 294 293 294 296 299 299 298 299 301 306 307 305 302 304 311 306 316 316 318 321 326 333 336 338 338 339 339 337 338 338 338 337 338 341 340 343 344 345 344 345 345 346 346 346 345 343 342 342 342 340 338 337 340 341 341 340 341 343 343 343 342 342 341 341 341 342 341 341 340 339 340 340 340 340 341 341 342 341 341 340 340 340 340 339
307 304 300 297 293 290 285 288 288 288 289 289 290 292 303 296 298 298 297 297 299 300 306 308 302 299 300 309 305 311 314 321 326 333 335 337 337 337 338 337 336 337 338 338 338 339 336 338 341 343 343 344 344 344 346 345 345 344 343 343 343 341 340 339 338 338 338 338 339 340 342 342 342 341 341 340 339 340 339 338 338 339 340 340 340 340 340 341 341 340 341 340 340 340 339 339 339
304 301 293 292 291 292 285 284 288 288 291 290 291 297 297 297 298 298 298 298 300 303 306 300 300 299 303 307 304 313 317 325 332 333 335 337 337 337 337 337 337 336 337 338 338 339 338 342 339 341 341 343 344 344 344 345 345 345 344 344 342 340 339 338 338 338 338 339 341 341 341 340 339 339 339 339 339 339 339 339 339 339 339 339 340 339 339 339 340 340 340 339 339 339 339 338 338
296 298 296 295 286 288 289 285 284 289 289 289 293 294 297 298 298 296 297 299 298 302 301 305 306 304 307 308 306 311 318 327 331 330 334 336 336 336 336 337 337 337 336 338 339 340 337 335 340 338 339 340 342 344 345 345 344 344 344 343 341 341 340 338 338 338 337 340 341 339 339 339 339 339 339 339 339 339 339 339 339 339 338 339 339 339 339 339 339 339 338 338 339 339 338 338 337
296 295 294 287 287 288 286 287 285 288 290 290 298 299 296 299 296 297 297 299 298 298 301 304 303 306 304 304 307 314 320 328 330 333 335 335 335 335 336 337 337 337 338 338 339 339 335 333 334 340 336 337 338 341 342 343 344 344 344 343 341 340 339 338 337 337 336 339 340 340 340 340 339 339 339 339 339 339 338 338 338 338 338 338 338 338 338 338 338 338 337 336 337 337 337 337 337
297 294 291 289 289 289 287 288 288 292 289 288 297 299 297 298 298 296 295 297 296 299 300 301 309 306 302 303 306 311 320 327 329 334 334 334 332 332 335 336 336 337 338 338 338 338 338 337 335 334 332 334 334 336 336 339 342 344 344 343 341 340 338 337 336 337 338 342 341 342 340 340 340 339 340 339 339 339 339 338 338 339 338 338 337 337 337 337 338 337 336 335 335 336 336 336 336
299 295 294 292 288 289 288 288 285 290 288 291 291 295 298 298 296 296 297 298 295 298 300 299 311 307 306 306 306 309 316 324 329 333 334 331 331 333 335 336 335 336 338 337 336 338 339 338 336 333 330 330 329 331 333 335 338 341 341 340 340 340 339 338 339 340 339 339 339 339 339 340 339 339 338 338 337 338 338 337 338 337 337 337 336 337 337 337 337 337 335 335 334 334 334 335 334
302 297 291 289 288 288 290 292 289 286 289 290 296 296 296 298 294 294 300 298 298 297 301 308 310 302 295 303 301 312 319 323 330 332 331 330 331 333 335 335 334 335 337 336 336 337 338 337 337 334 330 329 328 328 327 331 333 335 337 337 338 339 338 337 336 336 335 335 335 335 335 335 334 334 334 334 335 335 333 330 332 336 336 336 336 336 336 337 336 336 334 333 333 333 333 333 332
301 294 293 293 288 288 291 290 287 287 290 290 294 294 298 296 293 296 296 300 298 302 304 308 306 302 302 301 304 314 320 323 329 330 330 330 332 333 334 333 333 334 334 336 336 336 337 337 337 335 333 330 328 327 327 327 330 331 334 335 335 335 334 333 333 331 329 328 328 329 328 328 328 328 328 328 330 331 330 327 331 336 336 336 336 336 335 336 336 335 334 332 331 331 330 330 331
302 299 294 285 289 288 292 291 290 290 288 288 290 295 299 297 294 297 296 299 302 303 305 308 305 311 307 304 311 315 322 325 327 330 330 329 331 330 331 332 332 332 333 335 334 335 336 336 337 336 335 332 331 329 327 327 328 330 330 329 330 329 330 330 328 324 322 322 322 322 323 322 322 323 323 323 323 324 322 325 329 335 336 336 335 334 334 335 335 335 334 332 331 329 325 324 324
302 296 289 289 289 290 294 293 292 293 292 294 292 292 298 295 294 297 302 302 302 305 308 307 310 309 311 310 313 320 324 326 328 329 328 328 329 328 329 330 331 329 331 332 334 335 334 335 336 336 335 335 334 332 331 331 331 328 326 326 325 325 325 324 323 321 325 319 321 321 320 321 320 319 321 326 321 323 323 323 326 331 334 334 334 334 334 334 334 334 333 332 328 325 319 314 313
296 291 292 295 290 294 297 292 293 293 293 292 293 293 295 299 295 296 297 296 302 303 304 305 307 309 312 316 320 322 323 325 328 329 327 327 327 327 328 329 330 330 329 331 332 333 333 333 335 335 336 336 335 334 333 332 332 330 326 324 323 324 324 321 320 320 318 318 316 318 317 317 318 319 318 320 321 320 321 323 326 329 331 331 332 333 332 332 333 333 331 327 324 319 314 312 312
298 294 293 294 296 295 295 293 294 293 295 294 295 295 292 295 296 296 297 295 298 300 299 302 304 307 309 315 319 321 323 325 328 328 327 327 328 328 328 328 329 329 330 331 331 333 334 333 334 334 334 335 335 334 333 333 332 330 326 321 322 321 320 320 317 316 317 317 316 316 317 316 318 319 324 325 323 319 321 321 321 322 324 324 323 324 325 325 328 327 325 322 316 312 310 310 312
296 293 293 299 295 293 295 293 293 291 293 294 293 292 293 294 295 297 294 299 298 299 300 303 305 307 311 315 319 321 322 324 326 328 328 328 328 330 330 330 330 330 331 332 332 333 334 333 333 333 334 334 334 334 333 332 332 330 328 324 321 319 319 318 318 317 316 316 315 316 316 317 319 321 322 321 321 322 322 322 322 321 320 319 318 316 314 312 312 312 313 313 311 312 313 310 312
296 293 300 300 294 291 294 292 292 291 289 294 291 295 294 294 295 295 299 297 297 300 302 303 305 310 315 317 318 320 322 323 325 326 327 327 327 328 330 330 331 331 331 330 331 332 334 334 333 333 333 333 333 333 333 332 332 330 328 326 324 320 320 318 318 318 317 317 316 316 317 318 318 320 320 319 319 320 321 321 319 318 317 316 315 314 312 311 311 310 311 312 312 310 312 311 309
293 296 301 301 297 294 293 293 293 291 292 292 291 294 294 295 294 293 299 300 297 295 299 304 306 314 318 320 319 319 321 322 323 324 326 327 327 329 329 330 329 328 329 329 331 332 334 334 334 334 332 332 333 334 333 332 332 331 330 328 325 324 321 319 319 317 318 317 316 316 318 317 319 320 320 319 319 318 320 319 319 316 316 316 315 314 311 309 310 311 311 311 309 310 310 309 307
296 294 298 298 294 294 292 292 291 289 292 292 292 293 294 292 294 293 296 300 295 293 291 301 311 315 317 318 319 320 321 321 321 323 326 327 328 329 330 329 330 330 329 329 330 331 331 333 334 334 333 332 332 333 332 331 331 331 330 328 327 325 323 322 320 319 317 317 317 317 317 318 319 319 320 319 319 317 319 318 318 317 316 315 315 313 311 308 309 309 311 310 310 308 311 308 307
294 294 298 296 293 293 291 290 290 290 291 291 292 293 293 292 293 291 294 297 297 293 306 311 315 315 315 317 318 319 320 320 320 321 322 325 328 329 330 331 330 330 328 328 329 330 331 332 334 333 333 332 333 333 331 330 330 330 330 328 327 325 325 324 321 319 319 318 317 317 316 318 316 318 319 319 318 319 318 317 317 317 316 314 314 315 312 308 306 308 309 308 306 308 306 310 307
296 298 296 295 294 295 293 292 292 291 293 291 294 292 291 291 291 292 295 293 293 301 308 311 313 314 315 316 318 319 319 319 320 320 321 321 324 327 328 329 330 328 329 329 328 328 330 332 332 332 333 332 333 333 331 330 330 329 329 328 328 326 326 324 319 320 320 319 318 317 317 318 318 317 317 316 317 318 317 315 316 317 316 315 313 315 311 310 307 306 305 307 307 305 305 307 305
295 296 299 296 298 294 294 294 292 292 293 291 294 292 292 292 293 294 292 292 298 304 308 309 311 313 314 315 316 318 318 319 320 321 318 317 320 324 327 328 328 329 329 328 328 328 328 330 331 332 333 332 333 332 332 331 331 329 329 329 328 327 327 324 321 321 319 320 319 318 318 318 318 317 317 315 315 317 316 315 316 316 315 314 313 314 308 309 306 307 307 307 306 305 305 306 307
295 295 296 294 295 293 292 290 292 293 295 290 294 292 291 292 293 295 295 294 297 300 307 309 308 311 314 315 315 316 317 319 318 318 319 318 320 322 325 326 327 328 328 328 328 328 327 329 330 332 332 332 332 333 332 332 331 330 330 329 328 328 327 324 322 321 319 320 319 318 318 318 317 318 317 316 315 314 313 314 314 313 315 312 312 311 309 307 308 307 307 306 306 307 305 306 304
298 294 293 292 294 296 292 292 292 292 294 291 292 293 291 292 292 297 293 297 297 301 306 308 309 309 311 313 314 315 316 316 316 318 320 321 322 323 323 325 326 326 328 328 328 326 325 327 330 331 332 331 331 332 333 333 332 331 330 329 329 327 326 324 322 321 321 320 319 318 318 318 317 318 317 317 315 315 313 312 310 310 312 311 310 308 308 308 308 308 307 305 306 306 306 308 304
295 293 291 292 292 292 294 292 291 292 294 289 292 285 285 291 296 293 293 299 298 299 302 308 309 309 309 310 313 314 313 313 315 318 320 321 322 323 323 324 325 326 325 325 325 325 326 327 329 331 331 331 331 332 333 333 333 332 331 330 328 327 326 324 322 322 321 321 320 319 318 318 318 318 317 315 315 314 313 312 313 311 310 309 308 307 309 307 308 308 307 307 308 307 306 303 304
293 294 292 289 290 289 292 292 293 293 293 291 293 285 286 290 294 295 294 299 298 298 300 305 307 308 309 311 312 314 314 316 317 319 319 321 322 323 323 324 324 324 324 323 324 325 325 327 328 330 330 331 330 331 332 333 333 332 331 330 329 327 325 324 323 322 322 322 320 319 319 318 317 318 317 317 315 314 314 313 311 313 311 308 308 308 310 307 307 310 306 308 305 305 303 303 304
290 290 289 287 288 289 291 293 293 294 293 292 293 287 289 294 295 292 289 296 297 297 297 301 306 308 309 310 312 313 314 315 316 317 319 320 319 321 322 323 324 323 324 324 324 324 325 326 326 329 329 331 331 331 332 333 333 333 332 328 330 328 325 324 323 323 322 322 321 320 319 318 317 317 316 316 315 314 314 313 314 311 309 308 308 307 307 310 308 307 305 306 307 307 304 307 304
288 290 286 287 286 288 290 292 290 293 294 293 292 288 287 291 291 289 289 294 297 296 295 297 302 305 307 309 311 312 312 312 313 316 317 319 320 321 322 322 323 324 324 324 323 323 324 325 325 327 328 329 331 331 332 332 333 332 332 331 331 329 327 325 324 323 322 322 322 321 320 319 318 317 316 315 315 314 313 313 312 311 308 309 307 306 308 309 309 309 305 303 307 309 308 308 310
288 287 286 287 288 287 287 290 291 293 292 291 291 288 288 291 290 289 290 292 294 295 296 296 297 301 304 306 308 310 311 312 313 315 317 318 320 321 322 320 322 323 323 323 324 324 325 325 325 325 327 327 330 331 331 332 332 332 331 331 329 329 328 327 326 323 323 322 322 322 321 320 319 318 317 316 317 317 316 316 314 311 309 309 309 310 312 310 310 311 312 309 310 311 311 311 312
286 286 284 284 283 286 289 290 291 292 292 291 290 289 292 296 295 292 291 290 292 294 296 295 294 296 299 301 304 307 310 311 313 315 316 317 318 319 321 321 321 322 323 323 324 324 324 324 324 323 324 326 327 329 329 330 330 330 331 330 329 329 329 328 327 325 324 323 322 322 321 321 319 319 320 319 320 319 318 317 316 313 313 313 314 313 314 313 313 313 314 314 312 313 313 312 313
289 288 287 286 284 284 284 289 290 292 289 288 287 288 290 294 295 296 290 289 290 292 290 291 291 292 294 298 300 303 306 309 313 314 312 315 317 319 320 321 322 322 323 323 322 323 323 323 323 323 323 325 325 327 327 328 328 327 326 327 328 328 329 327 327 327 324 324 323 322 322 323 322 322 323 322 321 320 319 318 317 316 315 316 315 314 314 314 314 313 313 314 313 310 310 311 312
290 289 288 287 286 286 287 288 291 290 290 288 287 288 290 293 295 295 291 288 289 287 288 290 292 292 292 292 296 299 301 305 309 308 310 311 315 318 319 320 320 321 321 322 321 321 322 323 322 322 324 324 324 325 326 328 327 327 327 327 326 328 328 328 327 327 326 325 323 324 325 325 325 325 324 323 322 319 320 319 318 317 317 316 316 316 316 316 316 315 313 310 309 311 311 309 306
289 287 285 285 285 285 287 290 290 290 290 286 285 286 287 290 294 295 289 288 290 290 290 290 292 292 292 291 292 294 298 299 298 299 301 307 310 313 316 318 317 318 320 321 321 321 321 322 322 323 323 323 324 325 326 326 328 329 327 327 328 328 328 326 327 328 327 326 326 326 326 326 326 326 324 324 323 322 321 319 318 318 317 315 316 317 316 313 314 313 312 310 309 311 310 306 306
286 285 284 283 284 285 287 288 290 290 290 288 285 287 288 289 293 295 292 291 292 292 293 294 294 293 292 292 292 293 293 295 296 298 298 301 304 308 313 316 318 320 320 320 321 321 321 321 322 322 323 323 323 325 325 326 327 327 328 328 329 326 328 330 330 329 328 328 327 326 327 327 327 326 325 324 324 323 323 321 320 319 318 317 315 314 314 314 314 314 312 313 309 307 308 308 310
285 283 282 283 283 285 284 287 290 289 289 288 285 285 287 288 291 292 293 291 292 293 292 293 293 293 293 294 294 295 294 294 294 296 296 297 301 304 308 313 316 319 319 319 320 320 322 321 322 322 322 323 323 324 323 326 326 326 325 323 323 327 325 324 328 329 328 328 327 326 326 327 327 327 326 325 325 324 323 322 321 319 319 317 317 316 314 314 313 312 312 310 311 309 306 307 307
285 285 282 282 284 285 285 285 287 288 289 287 287 287 287 287 288 292 290 289 290 292 290 290 290 292 294 294 293 294 296 296 296 296 295 295 296 301 306 310 314 316 318 319 320 321 322 321 322 323 323 323 324 323 322 324 321 319 320 316 316 318 316 322 325 326 327 325 326 325 325 325 326 327 327 326 325 325 324 323 322 321 319 318 318 317 315 314 314 313 312 310 311 312 307 303 303
285 285 286 283 284 286 287 288 289 287 286 287 288 281 283 281 286 290 292 287 287 287 289 290 292 292 292 292 294 295 296 296 296 297 297 295 296 298 302 306 310 314 316 319 321 321 322 322 322 323 324 324 324 323 323 323 322 323 322 322 320 321 323 320 321 322 325 325 325 326 325 325 326 326 327 326 325 324 324 324 323 322 320 318 317 317 317 315 314 312 312 313 311 311 313 308 306
282 286 287 286 287 288 288 288 288 282 281 286 285 284 280 278 284 286 287 285 287 289 287 289 291 291 292 293 294 295 296 296 295 294 293 292 294 295 298 303 308 311 315 318 319 321 321 322 322 322 323 323 324 323 322 321 322 323 323 324 324 324 323 325 326 325 327 327 327 326 326 325 326 326 326 326 326 325 325 324 323 323 322 321 318 318 316 315 315 314 313 311 311 309 308 309 310
284 284 287 287 288 287 288 289 287 283 285 287 284 283 280 279 287 286 283 283 285 286 288 289 290 291 292 293 294 295 296 295 296 295 294 293 294 295 297 300 306 310 313 315 317 319 320 321 321 321 322 322 323 323 322 322 323 322 322 322 323 323 323 324 323 320 323 324 326 326 326 325 325 326 326 325 326 325 324 324 324 323 321 319 316 315 316 315 313 313 313 313 308 309 311 311 311
284 285 287 287 288 288 288 288 286 284 284 283 283 284 280 279 280 282 283 286 287 287 289 290 290 291 292 293 294 294 295 295 295 295 294 294 294 295 296 298 303 308 311 313 316 317 319 320 320 320 321 321 322 322 321 322 322 323 323 323 322 322 322 320 311 314 319 322 325 325 325 325 325 325 326 325 325 325 322 323 323 322 321 319 314 316 316 314 314 315 311 309 311 311 311 311 309
286 286 287 287 288 288 289 286 286 284 283 282 283 283 280 283 279 286 282 282 285 285 287 290 291 291 293 293 292 293 293 292 292 294 295 295 295 295 295 295 296 303 308 310 311 312 315 316 317 318 320 321 321 321 321 321 322 321 322 322 322 322 319 311 312 314 316 320 324 323 325 324 324 323 324 325 325 325 324 323 323 322 321 320 315 316 317 315 314 314 314 313 312 311 310 310 310
288 288 287 286 284 284 283 284 282 282 278 281 282 282 282 281 285 285 285 286 286 287 288 288 289 288 289 289 289 291 291 291 292 292 293 294 292 292 292 294 295 295 301 306 308 310 312 314 316 317 319 320 320 321 321 321 321 321 322 322 322 321 319 317 315 314 316 317 321 322 323 324 324 323 323 323 324 324 324 321 322 323 322 318 317 317 315 315 316 315 314 311 308 309 309 309 308
291 287 284 287 285 283 284 281 283 278 277 278 277 280 281 279 283 285 288 283 284 290 289 291 291 290 287 287 288 288 288 289 290 290 291 292 291 291 292 293 294 295 297 302 307 308 310 313 314 316 317 318 319 320 320 321 321 321 322 322 322 322 320 318 318 318 316 317 319 320 320 322 322 323 323 323 322 323 322 323 320 322 320 320 319 318 316 316 313 312 312 311 309 308 310 309 309
288 286 287 283 277 279 276 279 276 276 275 278 276 278 278 281 283 285 285 286 286 284 287 290 291 288 286 288 288 289 290 290 291 291 291 291 292 292 292 294 293 294 296 299 304 307 310 311 312 315 316 316 318 319 320 320 320 321 321 321 322 321 321 319 319 319 315 316 316 317 317 319 320 320 321 322 322 322 322 322 322 322 321 320 319 318 317 315 313 311 310 309 309 309 310 309 308
286 286 284 281 276 274 274 273 268 267 274 276 278 279 278 281 280 287 289 291 290 290 289 288 287 288 289 290 290 290 291 290 291 291 291 291 292 292 292 293 294 295 295 297 300 303 306 308 309 312 315 314 314 316 318 319 320 321 321 321 322 320 320 318 318 319 315 316 315 316 316 318 319 321 321 321 323 322 321 322 321 322 322 320 318 318 317 315 314 313 312 311 310 310 309 308 307
286 286 286 283 280 273 272 271 275 275 276 276 277 276 276 276 283 283 292 294 292 287 286 286 286 288 288 288 288 289 290 291 290 289 291 292 293 293 294 294 293 294 295 295 297 299 301 304 306 308 311 309 312 314 316 318 319 319 319 320 320 318 319 317 317 317 316 315 314 314 314 316 318 320 321 322 320 321 321 321 321 321 319 318 317 316 315 314 314 312 310 309 308 308 308 307 306
284 283 284 279 283 278 274 271 272 270 272 272 273 277 277 281 283 287 286 286 288 289 288 286 288 287 286 287 289 292 293 293 291 291 291 291 292 292 292 293 292 292 293 292 294 296 299 302 303 306 310 308 310 311 314 316 317 317 316 317 317 316 314 315 314 313 315 315 314 314 313 314 317 318 319 319 319 320 320 319 317 317 316 315 315 314 313 312 312 311 310 309 308 307 307 306 305
283 283 283 284 283 280 273 272 274 272 271 275 272 277 280 279 286 291 289 285 288 287 286 285 287 288 285 287 289 291 293 292 292 292 292 292 292 292 291 292 292 292 292 294 295 295 297 298 300 302 305 304 307 309 312 313 314 313 313 314 314 314 315 315 315 314 314 313 313 313 313 312 314 316 317 317 317 317 316 315 314 313 313 313 313 313 312 311 310 309 308 307 306 305 305 304 303
283 280 285 284 284 282 280 274 268 271 270 273 271 279 279 278 281 284 287 284 288 287 287 287 286 285 286 290 290 291 292 292 291 291 292 292 292 291 294 293 293 294 294 293 294 293 294 296 297 300 300 303 303 305 307 309 311 313 313 313 314 315 315 315 315 315 314 313 311 311 311 312 314 316 316 314 314 313 312 308 311 310 310 309 307 306 306 307 306 305 305 304 303 301 298 297 297
287 284 287 286 278 278 278 273 269 267 268 269 268 274 275 278 283 281 283 285 290 291 288 285 286 287 289 290 291 290 289 289 289 290 290 293 294 293 294 296 296 295 294 295 297 298 294 292 294 297 299 301 302 303 302 303 308 312 313 313 314 314 315 316 316 315 314 314 312 312 312 314 313 313 311 312 311 310 308 307 307 304 303 304 303 302 302 301 301 299 299 298 297 298 295 293 294
286 286 284 284 282 279 275 277 272 272 269 267 272 269 280 281 279 282 285 282 286 290 288 286 288 289 290 290 290 290 289 289 289 290 290 293 294 293 295 295 296 296 296 297 297 297 295 293 294 296 298 300 301 303 304 306 307 308 309 309 311 313 313 315 314 313 312 312 312 312 312 312 312 310 311 310 308 306 304 302 300 300 299 299 299 298 297 296 295 294 294 293 293 294 292 290 288
282 282 282 283 282 282 279 277 277 278 267 265 268 269 279 280 283 286 290 290 291 289 289 289 288 289 289 289 289 288 288 289 289 290 292 293 294 294 295 295 295 295 296 297 297 298 296 294 295 297 300 301 303 304 305 307 307 307 307 309 309 310 311 311 312 313 312 312 311 311 311 310 308 307 306 304 303 302 301 300 299 298 298 297 296 294 294 293 292 291 291 291 292 291 289 288 287
286 285 282 284 280 278 277 278 277 270 274 269 266 275 281 278 285 290 290 292 292 294 288 288 287 287 287 287 287 287 288 288 288 289 291 293 293 295 294 294 294 296 297 297 297 298 297 297 298 301 302 303 303 305 307 307 308 308 309 309 309 310 310 311 311 311 310 309 308 307 305 304 303 300 301 302 300 300 299 298 297 296 295 294 293 293 293 293 292 291 290 291 290 288 286 285 285
Wind_Speed
7 6 3 1 3 1 3 7 1 3 3 0 1 1 0 0 1 1 1 1 1 1 1 2 4 5 3 4 8 4 1 7 6 6 2 1 1 6 4 7 7 7 6 4 5 4 4 6 7 7 10 11 10 11 10 13 11 11 11 11 12 10 11 12 12 13 13 14 13 14 15 15 15 16 16 16 17 17 16 15 14 14 16 16 16 16 17 17 18 18 18 18 18 18 18 19 18
4 4 4 1 1 2 1 2 4 3 6 3 3 1 2 1 1 4 6 3 2 1 1 5 6 6 8 7 6 3 2 2 4 1 1 1 5 4 5 8 8 9 6 5 4 3 3 4 5 8 10 11 11 10 10 12 11 11 11 11 11 11 10 11 12 13 13 14 14 13 14 15 15 15 16 16 15 16 16 15 15 15 16 16 16 17 17 17 17 18 18 18 18 18 18 17 17
4 6 4 4 3 5 2 4 1 1 3 1 3 5 1 2 4 4 5 2 1 4 4 4 3 3 2 2 1 1 3 1 2 2 3 5 9 5 6 7 7 6 7 4 4 3 3 4 5 7 10 11 11 10 9 11 11 11 10 10 11 10 11 12 12 12 12 13 14 12 13 14 14 15 16 16 15 15 16 16 15 15 16 16 16 16 17 17 17 17 17 18 18 17 17 17 17
2 5 2 2 2 4 1 4 4 3 0 3 3 3 2 4 5 5 3 2 6 1 0 1 2 1 1 1 0 1 1 1 2 3 6 7 1 7 6 7 7 6 6 4 3 3 3 5 5 6 11 11 10 8 8 11 11 10 10 10 10 9 9 9 11 12 12 12 11 12 14 14 14 15 15 15 15 15 16 16 16 15 16 16 16 17 17 17 17 17 17 17 17 16 16 17 17
2 1 4 4 3 2 2 0 3 2 1 4 0 4 4 4 5 3 1 3 4 2 1 1 3 1 1 3 1 0 1 1 2 1 3 2 5 7 7 8 8 7 6 5 4 3 3 5 4 5 10 11 12 9 7 9 11 10 10 10 10 9 9 10 9 11 12 11 12 12 13 14 14 14 15 15 15 15 15 15 15 15 16 16 16 16 17 16 16 17 17 17 16 16 16 16 16
2 3 4 2 1 2 4 1 1 1 5 5 0 1 3 5 5 5 4 3 3 2 2 1 2 4 0 1 1 1 2 1 4 1 4 4 9 8 8 8 9 8 6 5 3 3 3 5 6 5 10 11 10 10 9 9 11 11 10 10 10 9 9 8 9 10 11 11 11 12 12 13 15 15 15 14 14 14 14 14 15 15 15 15 16 16 16 16 16 16 16 16 16 16 16 16 16
3 3 5 4 2 4 3 1 3 4 5 6 1 1 5 4 5 7 4 1 2 0 3 1 2 4 3 1 1 1 2 1 4 2 4 6 9 9 9 8 10 9 7 5 3 3 4 6 5 6 9 9 10 9 10 9 8 10 10 10 10 10 9 8 8 10 11 11 11 11 13 14 14 14 13 13 14 14 14 14 13 14 14 15 16 16 15 15 15 16 16 16 16 16 16 16 16
1 0 2 1 1 2 1 0 3 5 2 5 1 2 3 5 5 5 7 3 2 2 0 1 1 3 0 2 2 1 2 1 1 6 8 8 9 9 9 9 10 10 8 5 3 4 6 6 5 5 7 10 8 9 9 10 9 9 10 9 10 11 9 8 7 11 11 10 10 11 12 13 14 14 13 12 12 13 13 13 13 13 14 14 14 15 15 15 15 15 15 16 15 15 15 15 15
5 6 0 4 1 3 2 2 3 3 6 2 5 6 4 4 5 5 5 2 1 0 3 3 2 1 2 1 1 2 3 2 2 9 10 10 10 10 7 9 9 9 9 7 5 5 4 5 6 6 6 7 8 7 10 10 10 8 10 10 10 11 10 8 8 8 10 10 10 10 11 12 13 13 13 13 12 13 12 13 13 12 12 13 14 14 15 15 15 15 15 15 15 14 14 14 14
1 2 1 2 4 1 2 4 0 3 2 2 2 2 3 4 4 2 4 1 2 4 3 1 1 1 2 3 1 1 0 1 7 10 9 10 9 8 8 8 8 11 9 7 5 5 4 6 7 6 6 5 7 8 8 10 10 8 9 10 11 10 10 9 8 8 10 10 10 10 9 11 12 12 11 12 12 12 12 13 12 11 11 12 13 14 14 14 14 15 14 14 13 13 13 12 12
2 5 2 2 2 1 3 5 4 5 2 4 4 5 3 4 5 3 1 1 1 3 1 2 2 2 2 2 2 2 2 3 10 10 10 10 9 9 8 7 7 8 9 8 6 5 4 4 7 7 6 5 5 7 7 6 9 10 9 9 11 11 10 9 8 8 9 11 9 7 10 11 12 12 11 11 12 12 12 12 12 12 11 11 12 13 13 13 13 14 14 13 12 12 11 11 11
2 2 2 2 2 6 4 2 3 6 7 2 0 0 3 6 2 3 1 4 2 1 4 4 1 6 3 2 2 1 0 5 7 9 10 9 8 8 8 6 7 6 7 8 7 5 3 3 4 6 7 6 6 7 6 6 6 9 9 8 11 10 9 9 8 8 8 10 8 9 11 11 12 12 11 11 10 10 11 11 12 11 11 10 11 12 12 12 13 13 13 12 12 11 11 11 11
3 1 5 3 1 1 1 0 2 2 4 4 2 1 3 6 5 3 3 1 1 2 3 6 3 3 1 3 3 3 3 7 4 9 10 9 7 6 7 9 7 7 8 7 8 6 4 3 4 4 5 7 6 6 5 7 7 8 7 8 9 9 9 8 8 7 9 11 10 10 11 11 12 11 12 11 11 10 10 10 10 11 11 10 10 11 11 11 12 12 13 12 12 11 11 10 10
2 3 3 1 2 1 3 1 1 1 4 2 2 1 4 4 3 4 6 4 4 5 2 2 4 3 1 2 3 2 5 6 5 8 8 7 6 6 8 9 8 7 7 7 7 6 6 4 3 4 4 4 4 5 6 7 7 8 6 7 8 8 8 7 7 9 10 10 9 8 10 10 11 11 11 10 9 8 9 7 7 9 10 10 9 9 10 9 10 11 12 12 12 11 11 10 10
1 2 4 4 1 1 2 2 2 2 4 1 2 6 3 1 4 4 7 5 7 3 1 1 4 1 4 7 4 7 7 7 8 8 9 7 7 7 8 9 9 7 8 7 7 7 7 4 4 4 3 4 5 4 4 4 7 8 7 7 8 9 8 8 8 8 9 9 9 9 9 10 10 10 9 9 8 8 8 7 6 5 8 9 9 9 9 8 8 9 11 11 12 12 11 10 9
3 4 3 1 1 2 2 2 1 2 5 3 1 3 5 0 1 5 4 3 1 0 1 3 1 2 1 5 1 5 7 9 8 9 9 9 8 7 8 10 8 8 8 8 8 7 7 5 4 4 4 4 4 4 4 3 5 8 8 8 8 8 8 8 8 8 9 9 9 9 9 7 7 7 9 6 8 8 7 6 7 6 7 8 9 8 7 7 7 8 9 10 11 11 11 10 9
0 2 0 2 2 2 3 2 5 2 3 3 2 3 7 4 1 0 1 1 4 3 1 1 2 1 3 3 2 3 8 9 9 10 9 8 7 7 7 8 8 7 7 7 7 6 7 7 6 4 5 5 5 5 4 4 4 7 6 7 8 8 8 8 8 8 8 8 7 7 7 5 4 4 5 4 6 5 7 8 8 7 6 6 7 7 6 6 6 7 8 9 10 9 8 9 9
1 0 3 1 3 3 4 4 7 1 1 1 2 4 5 4 1 1 2 4 2 0 1 3 1 2 2 4 1 4 10 13 12 13 9 10 8 8 9 8 7 6 7 7 8 7 7 7 7 6 5 6 6 5 4 4 3 4 4 4 4 5 6 7 6 4 5 4 6 5 4 3 3 3 4 5 4 4 5 7 7 7 7 7 6 6 6 5 6 6 8 9 9 8 7 5 5
1 1 2 6 4 4 3 2 4 1 3 1 2 1 4 6 7 3 3 1 1 1 3 1 3 3 3 1 6 9 11 11 13 13 13 14 12 12 10 8 7 8 8 7 6 9 6 6 6 8 7 6 6 5 4 5 5 3 3 4 4 5 5 4 4 4 4 4 4 4 3 3 3 3 3 3 4 6 5 6 7 7 6 7 6 6 6 5 5 6 8 8 8 7 5 4 4
2 3 2 3 4 4 3 2 2 6 1 2 1 1 3 2 4 1 3 3 1 7 6 2 4 5 1 4 6 8 10 12 12 13 12 10 9 10 10 11 10 8 7 7 7 6 7 7 7 6 8 8 7 5 4 4 4 3 2 3 4 4 5 4 3 3 4 4 4 4 3 3 3 2 4 6 5 3 4 5 7 7 7 7 7 5 6 7 7 7 7 6 4 3 3 4 3
1 2 4 3 2 2 2 3 4 4 2 1 2 1 4 3 4 4 4 5 5 7 8 11 12 8 7 7 9 9 11 11 11 11 12 13 12 10 10 10 9 8 7 6 6 7 8 8 7 7 6 8 8 6 5 4 4 4 3 3 4 4 3 4 4 4 3 4 3 3 3 3 3 3 2 2 2 2 2 2 2 2 2 2 4 2 2 2 3 2 3 4 3 3 3 3 4
2 4 6 8 1 2 5 3 2 1 3 1 2 4 6 2 0 3 10 9 10 10 9 8 5 8 12 13 11 9 12 13 13 12 14 14 15 13 9 8 6 6 6 8 9 7 8 9 8 6 7 6 7 7 8 5 6 4 4 4 4 3 4 4 3 5 4 4 3 3 4 4 3 3 2 2 2 2 2 2 2 1 1 1 1 1 1 1 2 2 2 2 2 2 2 2 2
3 1 1 2 4 4 2 1 2 2 1 4 2 4 3 7 1 2 6 12 2 1 1 9 5 8 9 12 13 12 13 14 14 15 14 14 14 13 11 9 9 9 7 8 7 6 7 8 8 7 9 8 8 6 6 5 4 4 4 4 5 5 3 4 4 4 4 3 3 4 5 3 3 3 3 2 2 2 2 2 1 1 1 1 1 1 0 1 1 1 1 1 2 2 2 2 3
0 2 2 5 1 6 3 5 3 3 7 5 4 1 4 5 6 0 5 7 1 3 3 3 6 5 6 11 13 17 17 17 17 16 16 16 16 15 12 11 9 7 7 8 8 8 7 9 9 8 8 8 7 7 7 7 7 6 6 5 5 5 5 5 4 4 3 4 3 4 3 4 5 4 4 3 2 2 3 2 2 1 1 1 1 1 0 0 1 1 1 1 1 2 3 3 3
2 2 2 2 0 4 5 4 3 1 5 1 3 3 3 7 4 2 7 8 6 2 2 4 7 7 6 9 13 11 12 12 11 11 7 7 8 9 8 8 9 8 10 9 8 8 9 9 9 11 8 9 7 7 7 6 7 6 5 5 5 6 5 5 5 4 4 4 3 4 4 5 4 4 4 4 3 3 3 2 2 2 1 1 1 1 1 1 1 0 1 0 0 1 2 4 2
4 5 1 2 3 5 5 5 1 1 0 1 3 1 2 3 3 3 9 5 3 3 4 4 6 8 9 11 12 12 12 14 11 10 12 7 7 10 11 10 10 11 11 10 9 9 8 8 11 13 10 9 8 9 7 7 7 7 7 8 6 6 6 5 4 5 4 5 5 4 4 4 5 5 5 4 4 4 3 2 2 3 3 1 1 2 2 1 1 0 0 1 1 1 2 3 2
3 1 4 3 4 7 3 1 2 1 1 1 4 1 0 1 2 7 1 2 4 4 4 2 5 9 10 9 10 9 11 13 14 10 5 5 7 11 12 10 11 11 10 10 9 9 9 9 11 11 9 8 7 9 7 8 7 7 7 7 6 7 6 5 5 5 4 5 5 5 4 5 5 4 5 5 4 4 3 3 4 3 2 3 2 3 1 2 1 1 1 1 1 1 2 0 0
2 3 2 5 1 2 5 3 6 1 1 1 3 2 1 1 0 9 3 0 2 7 4 5 5 6 8 8 8 7 8 8 5 7 13 11 11 11 12 11 11 10 11 11 9 7 8 11 11 11 10 8 8 8 7 8 8 7 6 6 7 6 6 5 5 5 5 5 5 5 5 5 4 4 5 5 5 4 4 4 4 3 4 4 3 3 2 1 1 0 0 0 0 0 2 1 0
2 4 3 3 2 7 1 4 2 1 2 3 3 1 1 0 6 6 1 2 3 5 5 5 7 6 6 5 5 6 9 6 6 8 12 11 9 9 12 11 11 11 8 9 9 8 10 10 11 11 10 9 10 9 8 7 7 6 6 7 6 6 6 6 6 6 6 5 5 5 6 5 5 6 5 6 6 5 5 5 5 4 4 3 3 3 2 1 1 1 1 0 1 1 2 3 3
1 2 1 2 3 6 5 1 0 1 1 2 0 4 5 7 15 2 1 5 5 4 4 6 7 6 6 5 6 7 4 5 8 11 10 10 10 9 11 10 11 11 9 8 8 10 9 7 8 8 10 11 11 9 8 7 7 7 6 6 6 6 6 6 7 6 6 5 6 6 6 6 6 5 5 5 5 5 5 5 5 5 4 3 2 2 3 2 2 1 3 1 2 1 2 3 3
6 1 1 1 1 5 2 1 1 4 1 1 1 4 6 6 11 1 2 4 8 6 6 6 6 6 6 7 7 8 8 9 12 12 10 10 8 7 9 8 9 9 7 8 12 12 9 9 8 8 10 11 11 10 9 8 7 7 7 6 6 7 6 7 6 6 6 6 6 6 6 6 6 6 5 6 6 5 5 5 5 6 4 3 3 3 3 2 2 4 2 2 2 1 1 2 1
1 3 5 0 4 4 5 1 3 7 0 1 3 4 7 10 8 1 1 4 4 7 7 7 6 7 7 6 8 8 10 8 8 7 9 8 7 8 9 10 9 9 11 11 10 8 9 9 9 9 10 11 11 11 9 9 8 7 7 6 6 7 6 7 6 7 7 6 6 6 6 6 6 6 6 5 5 5 5 5 6 4 4 3 3 3 3 4 4 3 2 2 2 4 2 3 1
3 4 1 3 2 3 7 1 3 1 0 0 5 5 2 7 4 1 1 4 4 5 5 6 7 7 7 8 8 8 7 7 7 10 10 9 9 9 9 10 10 11 10 9 10 9 10 10 10 11 12 12 11 11 10 9 8 8 7 7 8 7 7 7 7 6 6 6 6 6 6 7 6 6 6 6 5 5 5 5 5 5 4 5 3 3 3 4 4 3 3 3 3 3 2 4 4
3 1 5 5 9 5 7 2 2 2 1 4 1 3 5 6 2 3 2 4 4 5 8 7 5 5 6 5 6 7 8 8 11 12 14 12 11 12 10 9 10 9 9 10 9 11 11 10 10 10 9 10 10 10 10 9 8 8 7 7 7 8 8 7 6 6 7 7 6 7 7 7 7 6 6 6 6 6 5 5 5 4 4 4 4 4 4 2 3 4 4 3 4 2 3 3 5
9 8 6 4 2 3 4 5 2 5 2 3 3 6 5 13 10 7 1 1 5 8 8 4 5 6 7 7 7 8 9 9 14 14 13 11 10 9 9 8 8 8 8 10 10 9 8 8 8 9 9 9 9 9 9 8 8 7 7 7 8 8 7 7 6 6 7 6 7 7 7 6 6 6 6 6 6 6 5 5 5 4 4 4 4 4 3 3 3 3 4 3 2 3 3 3 4
11 8 7 2 5 4 5 4 2 4 4 6 5 7 6 13 16 10 2 1 6 7 4 5 7 7 6 8 8 8 10 13 15 11 6 6 9 10 9 8 8 7 8 8 10 10 10 8 7 8 9 9 7 7 7 7 7 8 8 6 7 8 7 6 6 7 6 7 7 7 7 7 7 7 7 7 6 6 5 5 6 6 5 4 4 5 5 5 6 5 5 5 3 2 2 3 3
2 2 3 6 5 4 2 3 2 2 1 6 6 5 7 10 14 9 1 1 2 4 6 7 8 8 8 8 9 10 10 17 10 5 6 7 10 10 9 8 8 8 8 9 10 11 11 11 9 12 10 9 8 8 8 9 9 8 7 10 11 8 7 6 7 6 6 6 6 7 7 7 7 7 7 7 7 6 6 5 5 5 6 5 5 6 7 8 7 6 3 3 4 3 2 2 2
8 5 5 6 5 6 3 1 1 2 4 3 2 3 8 10 14 12 4 2 7 9 9 8 11 10 8 8 10 12 15 6 5 8 6 7 8 8 9 9 9 11 11 11 13 13 11 11 13 12 9 9 10 10 10 10 10 10 9 9 6 6 6 7 8 6 7 6 7 8 8 7 8 7 7 7 7 7 6 5 6 6 6 7 7 6 3 2 2 4 4 2 3 4 3 2 3
3 6 5 4 6 2 6 2 1 1 4 8 1 3 7 10 15 15 7 8 8 8 10 11 12 9 7 8 11 13 8 11 7 10 7 7 7 8 9 10 10 13 13 14 13 11 12 13 13 11 10 10 10 10 10 11 9 9 9 7 8 5 5 7 7 7 7 8 8 8 8 8 8 7 7 7 7 7 7 7 6 5 5 6 5 6 5 4 4 5 5 6 3 1 2 2 3
3 3 4 8 2 5 7 3 1 1 2 1 1 2 7 8 10 15 11 8 9 10 10 11 8 9 10 13 14 11 11 12 13 13 11 10 9 8 7 9 12 12 12 10 11 14 12 12 12 12 10 10 10 11 11 10 9 8 7 6 6 8 6 6 7 7 7 8 9 7 7 7 7 8 8 7 7 7 7 7 6 5 5 5 6 5 5 6 5 3 3 3 1 2 2 2 1
3 5 3 2 1 2 3 2 0 2 1 2 1 6 9 6 8 12 5 5 7 10 6 7 8 8 9 6 5 8 13 14 14 12 10 9 9 12 14 14 10 12 13 14 13 13 11 14 13 13 12 12 12 11 12 8 6 5 4 3 3 3 0 4 6 8 8 7 7 7 7 5 6 6 7 9 9 9 8 8 8 7 5 6 6 6 6 8 8 6 6 5 5 5 4 3 1
6 4 6 4 2 3 2 1 1 1 3 1 2 3 10 3 10 15 9 1 5 6 7 10 12 10 7 9 13 11 11 11 12 14 12 10 12 10 8 8 11 13 13 13 13 14 13 12 12 13 12 11 11 10 11 10 9 9 8 8 8 7 9 7 10 11 8 7 8 4 6 7 6 6 6 7 7 7 8 8 8 8 8 7 7 7 6 5 6 8 8 8 7 6 6 2 2
3 8 9 6 4 3 0 0 2 2 4 2 0 9 9 2 7 7 8 5 9 8 6 9 8 8 8 11 12 13 13 13 10 10 7 6 10 9 10 11 13 13 14 11 11 13 13 12 12 14 13 11 10 9 10 10 10 10 12 12 11 11 11 9 7 6 7 5 5 6 6 6 7 7 6 6 7 8 8 7 7 8 9 9 9 8 7 8 7 7 6 5 7 5 3 3 5
9 3 10 6 7 7 5 3 5 4 1 3 0 2 7 8 10 3 3 4 7 8 11 11 11 10 10 11 13 13 13 12 11 12 12 10 10 12 15 15 12 15 14 11 12 11 12 14 13 13 11 11 10 10 11 12 12 11 11 11 11 11 12 10 7 6 5 5 6 6 6 6 7 8 8 7 6 7 7 7 8 8 6 5 6 6 7 7 5 4 6 7 4 5 6 6 5
3 1 9 8 9 8 7 5 4 1 2 9 3 1 4 8 5 3 1 9 9 9 9 10 10 10 12 13 14 12 12 13 10 11 12 14 15 14 13 11 14 12 10 11 12 12 12 12 11 10 12 11 10 11 11 12 12 12 12 11 11 9 8 6 4 5 6 6 7 6 7 6 7 8 8 8 7 7 7 7 6 6 6 6 6 4 4 4 6 5 5 5 6 6 5 6 4
3 5 5 5 4 3 1 3 3 2 1 15 5 3 5 15 3 7 1 3 11 6 8 12 12 11 11 10 9 10 9 8 7 11 13 11 11 10 9 6 5 9 7 7 6 6 6 7 9 10 12 10 10 11 12 12 13 11 11 11 12 10 7 4 5 6 5 6 7 7 7 7 6 6 7 8 8 8 7 7 7 7 7 6 7 8 8 6 5 6 7 6 5 5 4 5 6
5 6 4 4 5 2 3 3 2 1 7 9 4 7 4 16 10 9 8 10 4 8 6 7 9 8 9 8 8 9 8 8 8 9 11 10 6 6 5 9 8 3 5 6 7 8 7 8 9 11 12 10 10 12 12 13 12 12 12 12 13 12 9 8 7 6 6 6 7 7 7 7 6 7 7 7 8 7 8 7 7 7 7 6 6 6 7 7 6 6 6 5 5 6 5 5 3
10 4 3 4 1 2 2 1 2 4 10 1 2 3 5 11 7 8 7 4 8 10 9 12 11 11 7 7 7 7 6 7 6 6 9 7 6 5 4 7 6 6 5 7 8 7 9 9 10 12 10 10 10 11 11 12 11 12 11 12 12 12 10 10 11 10 9 9 8 8 6 5 6 6 6 6 7 7 7 7 7 7 6 5 6 5 4 5 4 4 5 5 5 4 4 5 3
5 5 5 6 2 2 3 1 4 9 8 1 1 2 1 20 5 4 1 8 9 8 8 11 12 8 6 8 8 6 4 4 5 7 7 6 7 7 7 6 5 6 8 8 9 9 9 9 10 12 13 11 11 11 12 12 11 12 12 12 11 10 10 11 10 10 8 9 8 7 7 7 6 6 6 7 7 8 7 6 7 7 6 7 6 5 5 5 4 4 4 4 5 5 5 5 4
8 10 8 8 5 5 8 5 1 4 6 3 1 1 7 5 6 8 7 8 9 12 12 11 8 9 9 9 6 5 5 4 5 5 5 5 5 5 5 6 6 5 6 7 6 7 7 7 8 11 12 9 8 9 11 11 12 12 11 11 11 9 10 10 9 9 8 8 8 8 9 8 8 8 7 8 7 6 6 7 6 6 6 5 5 5 5 5 6 6 5 5 5 4 4 4 4
11 3 9 8 6 5 9 6 12 10 7 1 3 2 9 4 5 3 15 12 8 4 4 5 7 9 9 7 7 9 9 7 4 4 4 4 5 4 5 5 4 5 5 6 5 6 5 7 8 9 8 8 9 10 9 11 11 10 10 10 9 8 9 8 8 8 8 8 7 8 7 6 7 7 8 7 5 6 7 6 6 6 5 5 5 5 5 5 5 5 4 5 4 4 6 6 5
3 3 4 4 12 5 2 4 2 2 2 1 3 8 4 5 4 6 6 9 11 7 7 5 10 8 5 8 9 11 10 7 3 4 3 3 3 3 3 3 3 3 3 3 5 5 6 7 7 8 10 8 9 10 10 11 10 9 8 9 9 8 7 7 6 6 6 8 8 8 8 7 7 6 5 5 5 6 6 6 4 4 4 4 4 6 6 5 6 6 6 6 6 4 6 9 7
6 7 12 11 3 3 5 2 1 2 3 10 2 7 8 6 9 12 7 3 10 6 7 7 11 9 5 9 9 9 11 7 4 4 4 1 1 1 3 3 3 2 3 4 5 5 6 6 7 8 8 6 9 10 10 9 8 8 8 8 8 8 8 9 9 9 9 7 7 7 7 7 5 5 5 5 5 4 5 5 5 5 5 6 6 6 6 6 7 7 7 7 7 6 7 7 7
7 8 11 4 1 4 4 5 1 1 6 8 3 12 6 0 13 2 8 4 9 9 9 9 8 5 6 10 9 10 10 7 3 3 3 2 1 1 1 2 3 3 3 3 3 3 3 5 6 7 6 8 7 7 7 7 8 8 8 8 8 9 9 8 8 8 7 7 5 5 4 5 7 6 6 5 5 5 6 8 8 5 7 8 8 7 7 7 7 7 7 6 6 8 8 6 7
8 7 5 8 5 8 2 3 4 4 5 5 3 2 6 9 12 3 1 7 13 15 9 3 7 7 10 10 10 7 5 4 4 5 3 2 3 2 2 2 1 1 2 2 1 2 2 2 3 5 7 6 6 5 4 4 5 6 7 8 8 8 7 7 7 7 6 7 7 6 7 6 5 5 6 6 7 7 7 7 10 7 4 7 9 7 7 7 7 8 7 7 4 7 9 8 5
1 3 6 1 2 1 4 7 3 6 6 1 9 3 13 8 6 7 5 4 9 13 11 7 10 9 9 9 8 7 5 5 4 4 3 3 3 2 2 3 2 3 2 2 2 2 3 3 4 3 3 4 5 6 7 7 7 7 7 6 6 6 7 7 7 7 7 7 7 7 6 6 7 6 6 7 7 8 9 9 8 8 7 6 8 7 7 8 7 7 7 7 4 8 9 10 9
3 5 7 2 0 2 4 1 5 7 4 4 3 5 10 5 8 10 11 10 12 10 12 10 8 7 8 7 5 3 3 3 4 4 4 4 3 2 2 1 1 1 1 2 2 3 2 2 3 4 6 6 6 6 6 6 6 5 6 7 6 5 6 5 6 6 7 6 6 7 6 6 6 5 7 8 8 7 6 10 10 7 6 6 9 8 7 8 8 8 6 7 7 9 10 7 9
9 9 9 9 8 5 8 11 3 1 3 5 2 13 9 5 3 11 11 11 11 17 8 7 6 7 6 4 3 3 4 3 3 4 4 4 3 2 1 1 2 3 2 2 2 3 2 2 2 3 3 4 5 5 5 6 5 5 6 6 6 5 6 6 7 7 7 7 7 7 8 7 8 6 5 9 8 8 9 9 9 7 6 6 8 9 7 8 9 9 7 7 8 10 10 8 6
Wind_Direction
333 349 337 43 57 102 53 360 133 322 56 312 339 27 222 198 204 85 125 26 106 255 197 69 124 145 160 207 184 181 215 129 198 130 213 234 215 123 129 128 122 124 124 124 114 117 126 138 143 123 114 123 124 119 118 114 112 109 97 103 105 101 106 106 105 98 96 96 91 88 90 91 90 88 86 87 87 88 91 91 89 94 93 87 85 82 82 85 86 85 83 81 81 81 80 81 81
331 337 37 20 2 58 313 111 97 352 39 32 246 99 247 290 89 188 164 192 204 177 152 107 96 103 64 46 103 137 45 3 172 148 57 205 104 95 147 134 135 132 128 117 113 111 118 128 111 127 125 124 121 129 124 119 117 110 106 102 102 100 93 85 84 89 91 92 95 99 95 92 89 90 90 89 87 88 91 93 92 94 93 88 85 82 82 85 86 85 84 83 81 81 82 81 81
338 6 29 22 31 71 83 35 311 71 63 340 277 211 336 147 185 198 203 209 182 143 138 95 93 49 15 0 41 40 213 100 135 242 117 135 133 162 151 133 127 124 122 119 110 109 110 112 117 133 122 121 128 136 125 122 119 114 111 104 102 109 109 97 97 94 96 96 100 95 87 89 89 87 88 87 86 86 87 87 89 90 87 85 83 84 86 85 85 84 82 81 81 82 81 80 79
99 41 95 63 271 37 53 23 87 122 280 218 308 276 181 185 211 195 233 230 158 119 338 44 73 263 110 32 212 112 61 127 191 152 135 167 162 142 142 130 120 115 114 114 113 114 118 133 153 135 118 122 125 128 130 126 120 115 105 102 103 99 87 91 102 101 95 94 95 97 97 92 87 86 85 85 82 82 80 84 91 92 90 89 87 84 82 83 83 83 83 81 80 80 81 79 79
52 343 69 94 102 12 96 107 139 102 336 205 263 277 261 212 192 195 193 195 179 123 39 147 82 340 209 127 174 141 218 118 169 228 120 89 115 144 132 126 123 123 123 117 114 128 132 134 125 115 123 126 131 132 130 129 123 117 108 106 105 97 87 95 102 97 95 97 97 99 96 93 89 89 88 85 81 81 82 83 90 89 88 87 85 86 85 84 84 84 82 80 79 78 79 80 79
42 38 360 79 42 165 58 51 0 213 213 149 243 257 222 218 174 185 155 181 218 247 202 140 162 197 57 322 165 114 210 139 181 176 147 145 140 142 133 129 128 129 118 115 124 132 131 124 122 136 131 127 132 138 137 137 131 123 115 112 109 101 96 94 98 104 100 95 88 92 98 97 98 89 82 84 85 82 84 86 89 91 87 86 84 84 84 84 82 81 80 80 80 80 80 78 77
2 31 358 29 25 53 161 150 238 208 277 164 220 240 214 204 213 135 149 144 245 80 151 185 130 112 66 297 24 236 204 243 123 192 138 139 137 139 138 134 134 132 124 127 135 132 130 129 136 124 122 127 131 141 147 133 111 123 121 120 118 109 97 90 93 95 92 93 93 91 90 93 87 85 85 84 82 84 85 86 87 93 92 87 82 81 82 83 83 83 81 80 81 82 83 83 82
88 111 322 111 261 39 50 197 246 156 271 165 216 241 259 185 160 150 173 133 217 195 78 205 259 99 235 46 170 253 335 214 242 132 118 139 141 139 141 139 140 137 131 132 139 138 135 132 126 108 126 125 123 136 141 126 129 132 127 124 114 111 106 99 94 96 92 97 98 93 88 86 86 88 91 89 88 87 83 82 87 91 94 90 87 83 80 83 85 84 85 85 84 84 85 85 85
5 85 265 73 74 41 54 273 262 235 283 290 278 227 256 172 153 142 168 230 4 115 137 188 253 91 231 74 175 275 301 314 122 122 130 138 144 143 142 147 146 141 142 139 144 148 131 129 123 117 114 123 127 133 133 138 136 145 131 128 123 113 109 102 93 98 105 108 105 99 98 93 91 91 91 94 96 94 92 88 88 92 94 94 90 88 84 81 83 86 87 87 87 86 86 87 87
40 50 285 124 138 213 13 296 79 238 221 237 240 252 173 158 143 125 164 118 219 129 185 11 143 95 125 155 316 345 47 306 128 117 136 144 142 143 144 147 146 146 148 144 154 149 139 134 127 122 117 114 137 139 134 139 143 145 124 128 121 115 114 111 103 104 109 87 84 99 103 97 96 94 92 95 91 91 95 97 94 94 96 98 95 87 85 84 83 86 89 89 88 88 88 88 89
348 14 139 88 37 104 193 262 261 313 265 305 288 239 197 129 126 141 143 184 79 137 205 250 35 123 86 254 218 256 289 171 138 144 146 146 145 148 143 143 142 146 151 149 150 148 142 135 130 123 114 115 117 115 121 129 143 140 123 125 120 117 116 115 110 105 112 90 87 108 102 100 96 93 95 92 92 91 94 95 95 93 98 101 98 92 86 84 84 85 88 87 86 87 88 88 87
340 23 10 98 167 158 230 191 272 281 297 329 281 126 196 135 112 142 173 138 194 323 177 157 225 138 61 318 289 317 137 175 161 145 146 145 149 148 142 137 141 148 150 148 142 143 136 140 129 124 120 111 105 117 125 130 137 128 131 134 124 120 118 117 119 116 117 90 87 91 96 100 98 93 94 90 92 93 90 89 94 96 99 100 99 96 91 86 81 81 81 81 82 85 86 88 88
101 91 77 98 216 163 176 159 257 301 320 284 186 182 135 122 187 181 152 111 111 106 283 206 126 81 157 197 258 314 168 201 171 148 147 150 146 140 137 142 142 151 150 144 150 150 145 140 137 121 120 105 99 117 117 120 117 123 138 134 123 120 120 119 123 126 100 86 87 87 96 91 93 97 90 79 74 83 87 84 92 97 95 97 102 98 94 88 79 78 77 77 78 81 84 87 89
114 182 128 218 42 130 147 213 346 354 283 247 272 153 174 134 230 166 130 147 206 168 238 189 139 131 125 358 293 252 219 184 171 153 145 141 136 139 141 146 146 157 154 151 157 155 147 146 137 127 122 109 100 103 112 116 115 121 126 114 115 117 118 112 95 89 92 95 92 87 94 98 97 97 90 87 80 71 72 70 81 98 104 101 101 102 98 88 75 76 78 77 76 76 80 85 88
321 149 84 111 95 80 245 112 220 152 257 206 206 139 170 256 113 138 159 165 237 209 324 111 155 103 234 151 269 215 194 177 154 149 141 134 138 142 142 148 152 158 155 160 161 162 158 147 142 138 128 116 112 108 105 101 109 120 115 110 103 104 103 103 103 101 99 98 94 96 94 95 96 94 93 90 83 81 73 64 67 93 105 105 103 104 101 83 72 73 76 76 72 71 71 75 80
141 82 78 139 227 166 243 176 118 92 262 188 315 166 140 50 171 123 245 151 214 348 145 186 169 204 193 164 238 211 162 150 148 142 138 138 141 142 148 154 158 163 165 162 165 170 167 160 152 144 137 129 122 115 104 97 113 122 124 115 112 111 110 110 112 108 105 102 102 98 95 91 88 90 90 86 85 79 73 69 62 76 102 106 102 102 96 80 71 72 74 74 69 65 61 58 62
109 78 293 41 236 169 240 176 153 213 246 268 288 181 164 194 231 243 81 97 125 204 348 249 195 63 188 209 265 208 140 135 140 142 144 142 144 147 142 156 163 165 167 170 168 170 170 167 168 152 141 134 125 120 111 106 113 122 122 121 119 118 120 119 114 110 106 105 103 98 92 91 93 92 87 91 85 81 81 74 70 64 66 87 102 97 88 68 68 72 76 74 68 62 60 50 41
46 123 119 204 208 146 209 181 191 198 42 313 220 246 156 194 157 189 114 40 69 1 234 301 292 256 230 266 282 150 137 144 153 152 152 153 158 158 165 169 161 169 171 175 183 170 173 178 182 165 151 151 135 132 123 117 109 117 126 126 126 125 122 123 122 123 115 112 110 103 103 104 101 99 99 97 94 91 83 84 82 81 78 74 76 80 67 65 62 68 71 66 64 60 57 51 39
117 114 109 220 175 238 160 199 193 108 288 232 218 195 216 214 139 212 145 247 99 164 265 11 308 292 13 94 117 138 146 153 161 166 162 167 170 172 170 164 167 165 175 174 179 179 179 178 181 183 169 157 150 143 138 143 135 122 126 132 133 132 135 130 133 124 127 127 118 115 111 110 107 93 102 107 98 86 78 83 87 89 91 85 78 62 53 45 56 54 60 60 58 51 53 51 46
252 128 240 257 230 266 245 207 236 209 220 271 201 226 146 252 161 122 206 165 88 198 203 288 246 229 194 133 139 148 155 164 171 170 172 170 171 168 164 173 177 169 168 174 175 179 179 180 185 181 181 176 164 150 143 147 150 140 132 141 140 142 139 143 137 138 140 137 131 125 120 113 98 92 92 88 88 82 74 63 64 67 66 59 62 56 38 30 28 42 45 46 46 39 38 41 52
271 109 176 209 249 347 279 188 244 246 215 236 177 55 168 255 193 152 160 117 244 251 229 186 200 204 171 166 157 159 162 170 178 179 179 181 183 186 188 185 180 173 170 160 171 179 182 184 186 187 181 183 175 167 155 161 149 153 157 151 149 152 154 149 148 147 150 145 140 131 129 109 115 116 105 102 95 101 85 79 65 65 53 70 37 53 20 5 17 6 13 25 31 32 33 17 22
105 214 179 192 234 273 261 205 215 231 281 183 152 153 221 88 56 161 159 179 216 215 225 219 207 171 157 164 172 166 170 176 184 185 188 185 186 186 184 182 177 171 160 181 186 180 183 185 186 182 180 189 180 182 181 159 153 164 167 160 157 164 167 167 160 157 157 156 150 138 125 112 108 116 129 129 107 124 130 122 96 80 66 79 59 68 41 19 25 22 27 26 8 28 48 23 17
235 337 282 257 240 249 272 239 239 162 139 171 146 218 104 166 204 172 184 207 230 284 234 198 186 181 177 157 154 170 177 184 189 192 190 190 193 191 187 182 180 175 178 190 181 186 181 186 187 180 188 194 192 177 176 166 167 168 165 165 164 177 174 174 179 172 171 164 156 153 142 141 139 144 143 155 145 150 144 164 163 140 122 94 65 104 37 35 54 54 44 28 352 11 16 3 9
229 245 162 244 161 220 319 313 331 236 161 212 203 39 161 167 210 120 205 232 178 346 288 191 140 128 143 156 177 175 183 186 193 195 194 194 191 191 186 184 187 185 187 189 186 187 189 189 186 184 192 194 189 181 181 185 190 186 186 167 185 178 171 191 186 181 165 171 169 172 160 156 159 161 168 169 171 165 183 184 173 178 204 221 159 116 136 26 63 70 82 27 19 6 353 347 10
225 266 220 284 212 239 277 283 327 264 229 251 127 163 231 179 191 98 243 235 262 355 75 113 126 133 161 176 180 187 190 195 197 199 199 207 203 194 192 191 187 185 196 193 191 187 194 191 186 193 196 194 193 185 186 185 187 191 169 171 192 182 191 194 185 169 176 174 179 174 168 161 160 168 171 184 161 194 188 188 185 190 201 219 208 212 173 184 134 92 106 93 39 353 341 323 353
187 220 148 273 293 293 294 317 266 324 280 154 132 262 321 206 123 258 246 258 210 108 79 118 134 147 173 187 190 186 192 198 197 193 199 190 191 195 200 196 191 196 199 192 189 195 194 191 196 198 196 194 193 190 193 188 189 189 190 193 194 175 198 190 173 184 184 173 186 186 187 177 176 174 181 168 173 196 176 183 198 203 214 186 213 228 190 170 194 118 1 355 1 332 322 308 3
149 178 211 181 272 312 312 194 281 302 234 174 183 182 100 305 145 260 301 247 127 96 112 123 159 175 185 190 195 200 195 198 196 192 179 186 196 200 202 200 199 202 193 198 197 196 190 190 196 202 196 193 193 193 192 193 186 194 190 188 185 188 185 176 189 186 184 191 189 185 190 187 179 180 178 176 184 186 188 188 216 195 217 211 212 242 193 178 170 193 226 257 236 235 250 257 49
141 195 246 245 250 265 267 315 284 317 281 171 160 179 269 294 78 238 213 35 173 141 151 169 189 197 197 199 197 203 209 210 193 181 198 194 199 199 201 201 202 200 200 204 199 192 188 193 195 197 196 193 198 197 191 192 191 197 189 181 194 186 175 187 189 187 196 195 185 187 190 192 184 188 184 183 187 184 191 202 203 192 219 212 202 226 241 200 186 205 149 217 223 314 319 301 288
214 198 241 274 318 284 269 229 275 113 263 159 161 108 293 333 227 246 139 104 121 144 170 187 199 206 207 208 207 207 215 198 191 205 212 209 205 201 206 201 198 203 207 203 199 192 195 192 193 197 194 195 201 201 197 196 194 194 189 193 191 183 185 186 192 195 196 192 186 188 191 191 192 190 192 188 189 189 191 196 205 212 222 203 199 212 217 204 221 289 313 36 355 0 353 326 347
118 39 107 322 307 267 280 261 78 125 253 154 239 248 261 237 241 160 224 120 102 126 183 203 208 210 211 205 208 221 217 203 211 216 215 213 208 203 210 202 201 202 198 197 191 203 198 194 194 192 193 196 200 204 199 198 198 197 196 195 192 185 190 189 197 195 190 188 189 191 190 192 193 196 186 192 186 189 188 197 207 221 223 203 190 176 204 199 219 222 254 356 321 342 302 305 349
194 213 78 208 183 247 292 154 283 179 119 220 106 220 275 266 259 146 182 157 151 189 214 210 210 213 212 209 212 218 221 212 215 217 219 219 215 211 214 206 202 203 195 195 201 201 193 196 191 199 191 197 196 203 201 202 197 196 196 197 194 191 192 195 195 191 191 193 185 195 192 191 196 193 191 185 188 187 189 201 207 223 198 179 180 196 196 197 185 218 191 222 270 280 285 273 272
85 122 240 10 176 285 289 169 172 201 273 71 128 253 234 259 266 218 247 184 178 207 212 219 216 212 211 211 217 224 226 220 232 235 230 225 215 217 213 212 202 203 203 203 206 193 200 200 195 198 192 198 197 200 202 202 200 199 199 200 197 194 193 197 196 196 195 189 188 193 194 193 193 194 190 185 183 188 191 199 213 208 189 171 190 175 171 199 205 217 213 190 253 284 321 301 20
13 171 327 240 86 248 325 272 197 287 209 338 177 223 326 293 305 347 16 161 192 224 234 222 225 225 216 218 218 225 236 240 236 232 231 220 218 215 216 213 207 206 206 205 201 198 205 202 199 202 198 199 198 199 202 202 200 202 201 201 202 195 198 201 199 195 193 190 192 196 192 192 194 193 192 188 185 187 193 201 213 197 171 175 174 170 187 207 188 208 225 202 189 258 291 288 301
193 17 197 197 202 185 225 293 225 193 131 221 227 209 229 251 269 304 5 154 156 225 238 234 229 232 231 234 233 231 231 234 235 229 227 216 217 215 216 214 211 207 209 209 205 202 206 201 202 204 205 200 200 199 200 200 201 201 204 204 203 204 204 203 199 190 196 195 191 198 192 191 193 192 189 187 193 194 193 197 200 175 164 163 169 169 210 174 183 183 232 191 183 186 249 269 290
190 200 202 256 324 251 246 183 256 150 262 205 215 226 225 268 269 265 196 152 176 224 235 254 242 237 236 231 235 237 235 236 239 231 227 218 220 221 220 217 213 211 211 209 208 209 209 208 203 207 206 201 202 200 197 200 199 205 205 203 206 211 210 207 197 198 198 195 196 196 193 191 192 191 190 185 192 190 187 192 187 182 172 175 173 185 195 186 181 195 217 224 191 234 209 217 250
203 188 199 164 182 231 223 255 303 189 190 231 198 207 227 241 261 263 223 169 182 235 272 263 247 238 235 228 231 231 233 240 242 239 229 213 217 217 217 214 214 213 214 211 211 209 210 209 205 208 210 202 197 195 188 197 199 203 203 204 213 209 208 204 203 204 195 203 199 193 193 193 191 193 191 186 191 186 189 188 188 168 174 175 188 184 195 197 201 205 218 220 218 228 220 227 230
184 161 174 212 199 269 276 267 305 348 337 252 229 246 229 230 253 262 191 139 253 269 260 248 247 239 232 234 231 232 233 235 244 241 221 214 216 214 214 207 213 212 213 212 212 213 209 207 200 214 206 197 191 190 195 196 200 205 208 212 215 206 207 202 207 204 203 205 199 199 198 200 194 193 191 182 190 185 190 185 180 176 165 175 198 214 205 198 204 199 197 192 205 229 260 218 207
183 186 193 230 186 230 237 221 352 334 171 302 340 252 257 263 268 261 167 172 239 227 235 244 247 238 232 225 239 236 236 268 275 256 229 219 217 209 202 205 202 208 215 209 212 211 209 208 210 214 201 199 199 197 196 200 204 206 202 214 209 205 205 204 211 201 206 203 204 205 203 199 197 194 187 187 188 183 183 181 188 187 176 178 195 209 233 250 169 177 158 194 203 184 231 197 182
163 174 182 205 247 226 280 234 222 240 146 252 271 232 256 249 259 265 225 214 236 226 215 229 229 237 229 225 233 242 251 250 244 246 229 223 221 214 204 208 209 212 213 211 212 207 209 211 214 210 205 198 203 201 197 205 203 204 201 205 200 205 211 210 212 205 198 205 207 208 204 200 194 195 188 186 188 189 187 180 192 193 191 172 177 194 201 210 197 198 192 203 213 274 247 242 187
149 119 149 206 238 153 255 273 11 315 172 238 156 249 266 266 264 263 252 209 242 236 227 238 225 224 221 222 220 227 239 248 247 240 228 219 213 211 209 212 212 208 213 211 208 212 213 215 211 208 207 202 203 204 204 206 202 198 204 193 193 198 200 201 206 209 206 204 210 203 206 202 199 193 184 186 195 193 189 187 177 188 202 191 187 188 188 210 201 212 200 228 186 206 226 281 199
202 176 151 148 139 249 165 242 288 279 325 75 337 308 277 232 260 275 241 237 247 266 245 253 256 238 239 255 274 225 230 231 238 244 232 216 210 213 208 211 204 207 209 209 205 207 210 212 207 205 207 206 206 202 200 195 181 182 173 133 136 171 92 188 204 214 209 203 202 199 201 187 195 206 198 190 190 195 193 192 178 182 197 201 200 199 189 201 203 205 199 192 186 207 243 233 296
245 220 177 179 179 208 300 346 166 342 312 342 159 339 261 262 233 241 257 339 249 253 237 237 240 236 236 243 241 240 238 237 232 236 231 216 215 223 219 212 206 213 214 213 205 209 209 208 204 207 210 209 207 202 192 186 192 187 180 190 190 192 210 197 202 205 197 197 201 176 180 191 196 201 198 202 197 193 193 192 185 176 192 194 196 204 205 190 199 202 201 194 202 207 226 191 254
169 242 160 182 211 236 126 301 100 266 233 280 35 216 268 327 258 235 252 264 256 277 262 256 250 239 228 231 236 237 232 239 238 249 246 220 223 219 220 211 211 212 218 207 207 212 209 208 203 205 207 207 203 198 187 188 196 197 197 202 204 206 216 222 215 211 206 196 171 181 182 180 192 198 205 200 200 199 197 194 195 192 194 199 201 200 197 195 201 207 187 189 209 190 164 220 232
230 198 159 164 199 222 225 185 211 240 290 291 308 204 259 276 248 215 228 293 275 281 270 260 251 246 233 232 234 234 234 232 230 231 232 227 225 211 219 214 206 212 210 198 208 207 205 207 202 203 205 205 201 194 189 192 197 198 201 207 209 212 212 219 200 199 183 169 178 184 175 182 189 197 201 201 201 200 202 202 200 198 197 206 178 192 200 208 200 196 184 192 179 177 179 194 225
217 191 151 186 196 212 214 197 221 261 14 270 177 332 305 245 274 269 173 272 267 255 262 266 258 244 241 235 235 235 235 235 225 231 230 223 223 219 219 213 214 215 206 200 205 204 206 206 203 201 204 202 200 192 192 195 197 197 201 204 212 219 213 212 173 170 174 173 181 176 180 182 186 194 198 199 200 199 201 206 206 208 208 199 178 198 222 209 198 189 180 177 191 192 188 199 190
266 113 69 63 55 57 110 204 207 321 281 257 206 182 232 274 223 222 349 219 251 255 258 257 251 244 243 244 246 242 244 247 236 234 240 236 232 231 225 239 236 219 209 206 210 201 204 199 203 201 208 202 198 195 194 196 197 195 201 204 209 211 199 183 163 173 176 175 185 181 180 179 184 192 200 202 199 199 197 202 202 199 198 192 193 202 196 194 198 198 194 196 190 185 193 185 204
122 90 64 31 39 59 35 69 102 59 252 264 122 201 186 283 223 189 172 224 188 233 259 272 271 261 262 258 250 247 243 244 241 241 245 247 245 236 217 222 227 214 198 195 201 196 191 194 200 204 209 199 195 198 193 198 196 197 203 202 204 207 195 180 176 180 172 178 188 185 184 189 185 191 190 200 201 198 198 196 201 206 207 202 202 197 206 196 197 193 186 175 183 194 179 175 186
137 173 129 119 8 15 49 350 67 199 253 310 295 152 176 227 290 175 207 216 197 196 215 241 258 256 255 256 247 249 249 250 254 256 257 255 261 248 223 231 221 213 191 201 202 191 192 197 195 206 208 200 195 196 196 201 196 201 205 202 204 204 190 189 193 192 183 185 184 187 190 188 195 193 187 191 200 198 196 196 201 204 204 201 202 201 196 194 190 186 167 172 183 184 174 168 171
145 119 136 167 248 87 258 81 236 219 222 215 110 185 51 239 231 258 283 264 255 218 213 225 239 257 261 263 253 247 249 251 248 252 257 257 240 232 224 231 224 215 208 203 203 197 197 196 195 200 209 199 195 192 197 199 198 202 201 203 206 200 197 195 197 197 188 187 185 186 184 198 192 195 196 196 200 195 194 197 197 204 207 205 199 183 192 180 158 160 170 165 170 173 168 155 163
157 175 166 153 170 184 217 225 333 317 274 274 174 153 263 282 299 225 269 273 241 236 228 239 248 247 249 257 276 287 279 253 248 242 245 247 243 243 233 224 221 219 215 209 204 199 197 197 196 200 211 193 194 194 197 198 203 203 200 202 203 195 199 193 196 197 189 192 186 191 191 194 195 200 198 203 204 191 190 198 200 208 210 198 186 184 178 172 157 165 165 167 166 150 135 145 142
190 86 168 194 186 169 203 181 201 214 206 203 269 111 228 132 247 233 211 225 265 300 288 251 248 248 251 268 289 286 280 273 235 237 236 235 236 225 220 213 215 217 211 206 198 196 187 198 192 202 202 192 187 195 194 201 203 200 199 201 198 191 192 190 194 192 185 189 191 190 193 191 194 199 200 207 189 184 194 195 202 209 196 181 170 160 147 147 147 133 130 120 114 129 128 114 104
224 169 69 151 226 122 146 204 143 193 206 284 213 207 190 199 264 272 232 277 278 276 279 274 270 262 263 272 261 260 262 262 240 232 258 257 239 241 234 234 227 216 219 203 200 191 190 199 195 199 200 191 191 192 198 199 200 195 192 191 193 185 186 183 186 189 192 189 189 189 191 190 196 194 194 185 189 186 189 187 175 168 151 140 145 140 136 136 127 117 116 115 105 99 107 101 101
202 108 206 210 127 104 88 45 26 83 48 252 132 297 280 302 297 266 277 246 269 270 264 268 260 257 245 247 246 247 253 251 241 224 230 258 293 247 225 221 213 211 209 203 198 192 197 191 192 199 203 194 193 195 196 195 192 185 190 188 182 182 181 186 188 191 192 191 188 193 189 190 178 177 182 183 178 173 156 140 130 132 127 123 114 107 114 116 118 113 108 109 108 99 93 100 96
105 189 214 83 121 114 149 221 348 157 200 256 89 236 277 29 274 287 237 274 278 268 248 244 258 266 255 246 240 237 241 239 238 243 245 244 243 247 243 226 223 208 209 212 225 215 200 193 193 196 198 197 204 196 194 190 186 188 184 186 186 185 185 188 186 187 187 179 181 170 153 156 182 180 169 164 149 139 131 131 118 115 122 109 101 95 93 98 99 94 99 94 108 110 96 76 79
170 194 183 146 202 228 290 109 237 193 235 270 295 289 271 204 237 360 343 235 243 255 252 249 265 252 241 248 249 246 250 255 241 234 241 224 201 218 216 214 226 204 188 196 181 175 178 183 194 193 196 200 191 189 184 184 182 181 180 182 182 185 186 185 187 182 172 175 175 171 176 176 155 151 145 141 137 134 128 123 114 97 80 113 110 106 105 94 96 102 97 102 92 96 93 88 73
110 86 170 211 117 203 140 199 171 115 239 254 281 41 257 179 224 190 249 236 243 259 281 257 243 237 236 241 247 242 230 227 231 229 234 200 184 179 193 192 181 174 151 144 152 159 179 186 151 145 138 152 153 176 177 180 186 178 182 181 185 182 180 176 170 161 166 172 170 163 156 152 159 148 142 135 132 132 133 114 96 112 117 105 102 105 105 104 97 98 106 99 99 99 94 90 76
149 143 188 187 136 237 111 91 163 198 188 188 251 302 257 244 204 175 206 227 252 242 237 255 252 251 250 249 263 287 272 230 222 221 207 189 163 174 175 200 198 126 98 108 138 162 166 155 147 164 156 163 169 173 173 175 164 168 161 167 162 155 153 150 151 160 156 154 148 147 145 138 120 124 129 124 123 121 113 115 117 113 114 123 119 114 112 107 99 100 96 108 103 97 100 94 87
178 175 195 171 128 140 178 232 46 103 154 233 154 261 270 266 188 188 199 223 222 245 238 251 267 259 259 291 294 246 247 247 224 209 197 168 162 162 133 109 100 108 104 101 103 120 133 139 159 157 149 167 136 150 159 143 146 145 152 147 148 145 143 143 143 140 137 137 137 134 129 119 117 104 112 124 124 123 116 102 106 116 132 122 107 102 109 105 108 102 94 99 103 104 90 88 96